FW7990 Weather Reports


time (UTC)temp
C
wind
direction
speed
KPH
gust
KPH
rain 1hr
cm
rain 24hr
cm
rain mn
cm
humidity
%
barometer
mb
20260505202030 17 333 17.7 33.8 0.00 0.00 0.00 66 1010.2
20260505201539 17 309 19.3 35.4 0.00 0.00 0.00 67 1010.2
20260505201030 17 292 22.5 35.4 0.00 0.00 0.00 66 1010.2
20260505200530 17 286 17.7 29.0 0.00 0.00 0.00 66 1010.4
20260505200058 16 315 19.3 37.0 0.00 0.00 0.00 66 1010.6
20260505195530 16 321 19.3 37.0 0.00 0.00 0.00 66 1010.5
20260505195030 17 323 19.3 37.0 0.00 0.00 0.00 66 1010.5
20260505194548 17 287 17.7 27.4 0.00 0.00 0.00 66 1010.7
20260505194031 16 333 14.5 33.8 0.00 0.00 0.00 66 1010.7
20260505193530 16 345 20.9 33.8 0.00 0.00 0.00 66 1010.7
20260505193048 16 345 17.7 29.0 0.00 0.00 0.00 66 1010.6
20260505192533 16 346 20.9 32.2 0.00 0.00 0.00 66 1010.7
20260505192030 16 342 20.9 32.2 0.00 0.00 0.00 66 1010.7
20260505191541 15 319 11.3 22.5 0.00 0.00 0.00 66 1010.7
20260505191030 15 355 16.1 22.5 0.00 0.00 0.00 66 1010.7
20260505190530 15 302 12.9 29.0 0.00 0.00 0.00 66 1010.7
20260505190039 15 285 16.1 29.0 0.00 0.00 0.00 66 1010.7
20260505185533 15 262 16.1 25.7 0.00 0.00 0.00 66 1010.9
20260505185031 15 262 14.5 24.1 0.00 0.00 0.00 66 1010.8
20260505184544 15 245 3.2 19.3 0.00 0.00 0.00 66 1010.9
20260505184032 15 319 9.7 19.3 0.00 0.00 0.00 66 1010.9
20260505183532 15 297 12.9 19.3 0.00 0.00 0.00 66 1010.9
20260505183042 15 245 6.4 24.1 0.00 0.00 0.00 66 1010.9
20260505182533 15 284 11.3 24.1 0.00 0.00 0.00 66 1011.0
20260505182032 14 294 9.7 24.1 0.00 0.00 0.00 66 1010.9
20260505181542 14 261 9.7 19.3 0.00 0.00 0.00 66 1010.9
20260505181035 14 275 8.0 19.3 0.00 0.00 0.00 66 1010.9
20260505180533 15 312 4.8 14.5 0.00 0.00 0.00 66 1010.8
20260505175532 15 108 4.8 14.5 0.00 0.00 0.00 66 1010.8
20260505175034 15 166 6.4 12.9 0.00 0.00 0.00 66 1010.8
20260505174555 14 77 1.6 12.9 0.00 0.00 0.00 66 1011.0
20260505174032 13 0 3.2 12.9 0.00 0.00 0.00 66 1010.9
20260505173531 13 19 6.4 12.9 0.00 0.00 0.00 66 1011.0
20260505173043 13 102 4.8 9.7 0.00 0.00 0.00 66 1010.9
20260505172534 13 123 3.2 6.4 0.00 0.00 0.00 66 1010.9
20260505172028 13 0 1.6 6.4 0.00 0.00 0.00 66 1011.1
20260505171535 13 125 1.6 9.7 0.00 0.00 0.00 66 1011.0
20260505171035 12 126 3.2 9.7 0.00 0.00 0.00 66 1010.9
20260505170533 12 115 0.0 11.3 0.00 0.00 0.00 65 1011.1
20260505170043 12 115 3.2 11.3 0.00 0.00 0.00 66 1011.1
20260505165533 11 116 1.6 4.8 0.00 0.00 0.00 65 1011.0
20260505165033 11 126 0.0 6.4 0.00 0.00 0.00 65 1011.0
20260505164545 11 126 1.6 6.4 0.00 0.00 0.00 65 1011.1
20260505164032 11 126 3.2 8.0 0.00 0.00 0.00 65 1011.0
20260505163532 11 127 1.6 8.0 0.00 0.00 0.00 65 1011.1
20260505163044 11 133 3.2 8.0 0.00 0.00 0.00 65 1011.1
20260505162532 11 126 1.6 9.7 0.00 0.00 0.00 65 1011.1
20260505162029 10 150 3.2 9.7 0.00 0.00 0.00 65 1011.1
20260505161545 10 0 0.0 8.0 0.00 0.00 0.00 65 1011.2
20260505161032 10 147 1.6 8.0 0.00 0.00 0.00 65 1011.1
20260505160529 9 0 3.2 9.7 0.00 0.00 0.00 65 1011.2
20260505153049 7 158 1.6 9.7 0.00 0.00 0.00 65 1011.2
20260505152535 7 165 3.2 9.7 0.00 0.00 0.00 65 1011.3
20260505152032 7 167 4.8 8.0 0.00 0.00 0.00 65 1011.3
20260505151548 7 0 1.6 8.0 0.00 0.00 0.00 65 1011.5
20260505151029 6 190 3.2 8.0 0.00 0.00 0.00 65 1011.4
20260505150534 6 192 3.2 8.0 0.00 0.00 0.00 64 1011.7
20260505140530 0 0 0.0 0.0 0.00 0.00 0.00 64 1011.1
20260505125030 -2 0 0.0 0.0 0.00 0.00 0.00 63 1010.7
20260505124540 -2 0 0.0 0.0 0.00 0.00 0.00 63 1010.6
20260505124035 -2 0 0.0 0.0 0.00 0.00 0.00 63 1010.5
20260505123532 -2 0 0.0 0.0 0.00 0.00 0.00 63 1010.4
20260505123054 -2 0 0.0 0.0 0.00 0.00 0.00 63 1010.2
20260505122529 -2 0 0.0 0.0 0.00 0.00 0.00 63 1010.2
20260505122035 -2 0 0.0 0.0 0.00 0.00 0.00 63 1010.2
20260505121543 -2 0 0.0 0.0 0.00 0.00 0.00 63 1010.2
20260505121029 -2 0 0.0 0.0 0.00 0.00 0.00 63 1010.2
20260505120529 -2 0 0.0 0.0 0.00 0.00 0.00 63 1010.2
20260505120044 -2 0 0.0 0.0 0.00 0.00 0.00 63 1010.4
20260505115528 -1 0 0.0 0.0 0.00 0.00 0.00 63 1010.1
20260505115035 -1 0 0.0 0.0 0.00 0.00 0.00 63 1010.2
20260505114542 -1 0 0.0 0.0 0.00 0.00 0.00 63 1010.2
20260505114028 -1 0 0.0 0.0 0.00 0.00 0.00 63 1010.3
20260505113530 -1 0 0.0 0.0 0.00 0.00 0.00 63 1010.2
20260505113041 -1 0 0.0 0.0 0.00 0.00 0.00 63 1010.1
20260505112530 -1 0 0.0 0.0 0.00 0.00 0.00 63 1010.2
20260505112029 -1 0 0.0 0.0 0.00 0.00 0.00 63 1010.1
20260505111545 -1 0 0.0 0.0 0.00 0.00 0.00 63 1010.2
20260505111029 -1 0 0.0 0.0 0.00 0.00 0.00 63 1010.1
20260505110528 -1 0 0.0 0.0 0.00 0.00 0.00 63 1010.2
20260505102028 0 0 0.0 0.0 0.00 0.00 0.00 64 1010.1
20260505101541 0 0 0.0 0.0 0.00 0.00 0.00 64 1010.0
20260505101029 0 0 0.0 0.0 0.00 0.00 0.00 64 1010.1
20260505100529 0 0 0.0 0.0 0.00 0.00 0.00 64 1010.1
20260505100038 0 0 0.0 3.2 0.00 0.00 0.00 64 1010.1
20260505095528 0 0 0.0 3.2 0.00 0.00 0.00 64 1010.0
20260505095031 0 0 0.0 3.2 0.00 0.00 0.00 64 1010.0
20260505094537 0 217 0.0 4.8 0.00 0.00 0.00 63 1010.2
20260505094029 0 0 0.0 6.4 0.00 0.00 0.00 63 1010.0
20260505093529 0 217 3.2 6.4 0.00 0.00 0.00 64 1010.0
20260505093046 0 217 4.8 6.4 0.00 0.00 0.00 64 1010.0
20260505092529 0 217 1.6 4.8 0.00 0.00 0.00 64 1009.9
20260505092032 0 0 0.0 0.0 0.00 0.00 0.00 64 1009.8
20260505091559 0 0 0.0 0.0 0.00 0.00 0.00 64 1009.8
20260505091028 0 0 0.0 0.0 0.00 0.00 0.00 64 1009.9
20260505090531 1 0 0.0 0.0 0.00 0.00 0.00 64 1009.8
20260505090044 1 0 0.0 0.0 0.00 0.00 0.00 64 1009.7
20260505085532 1 0 0.0 0.0 0.00 0.00 0.00 64 1009.8
20260505085030 1 0 0.0 0.0 0.00 0.00 0.00 64 1009.8
20260505084538 1 0 0.0 0.0 0.00 0.00 0.00 64 1009.7
20260505084031 1 0 0.0 0.0 0.00 0.00 0.00 64 1009.7
20260505083528 1 0 0.0 0.0 0.00 0.00 0.00 64 1009.7
20260505083036 1 0 0.0 0.0 0.00 0.00 0.00 64 1009.8
20260505082529 1 0 0.0 0.0 0.00 0.00 0.00 64 1009.9
20260505082029 1 0 0.0 3.2 0.00 0.00 0.00 64 1009.9
20260505081555 2 0 0.0 4.8 0.00 0.00 0.00 64 1010.0
20260505081029 2 217 1.6 4.8 0.00 0.00 0.00 64 1010.0
20260505080529 2 0 0.0 4.8 0.00 0.00 0.00 64 1010.0
20260505080046 2 0 1.6 6.4 0.00 0.00 0.00 64 1010.0
20260505075528 2 217 3.2 6.4 0.00 0.00 0.00 64 1010.0
20260505075028 2 217 3.2 6.4 0.00 0.00 0.00 64 1010.0
20260505074542 2 219 4.8 6.4 0.00 0.00 0.00 64 1010.0
20260505074028 2 219 4.8 6.4 0.00 0.00 0.00 64 1010.0
20260505073529 2 0 0.0 4.8 0.00 0.00 0.00 64 1010.0
20260505073046 2 0 0.0 4.8 0.00 0.00 0.00 64 1010.1
20260505072533 3 0 0.0 0.0 0.00 0.00 0.00 64 1010.0
20260505072029 3 0 0.0 0.0 0.00 0.00 0.00 64 1010.0
20260505071550 3 0 0.0 0.0 0.00 0.00 0.00 64 1010.1
20260505071029 3 0 0.0 0.0 0.00 0.00 0.00 64 1010.1
20260505070532 3 0 0.0 3.2 0.00 0.00 0.00 64 1010.0
20260505070046 3 0 0.0 3.2 0.00 0.00 0.00 64 1010.0
20260505065529 4 0 0.0 3.2 0.00 0.00 0.00 64 1010.1
20260505065028 4 0 0.0 3.2 0.00 0.00 0.00 64 1010.1
20260505064535 4 221 0.0 4.8 0.00 0.00 0.00 64 1010.1
20260505064028 5 0 0.0 4.8 0.00 0.00 0.00 64 1010.2
20260505063531 5 0 0.0 0.0 0.00 0.00 0.00 64 1010.1
20260505063100 5 0 0.0 0.0 0.00 0.00 0.00 64 1010.0
20260505062528 5 0 0.0 0.0 0.00 0.00 0.00 64 1010.0
20260505062029 5 0 0.0 4.8 0.00 0.00 0.00 64 1010.0
20260505061606 5 0 0.0 4.8 0.00 0.00 0.00 64 1010.0
20260505061031 5 221 1.6 3.2 0.00 0.00 0.00 64 1009.9
20260505060533 6 0 0.0 4.8 0.00 0.00 0.00 64 1009.9
20260505060055 6 0 0.0 8.0 0.00 0.00 0.00 65 1009.8
20260505055529 6 0 1.6 8.0 0.00 0.00 0.00 64 1009.9
20260505055033 5 221 3.2 8.0 0.00 0.00 0.00 64 1009.8
20260505054541 5 0 0.0 8.0 0.00 0.00 0.00 64 1009.9
20260505054028 5 177 4.8 8.0 0.00 0.00 0.00 65 1009.8
20260505053528 6 176 1.6 6.4 0.00 0.00 0.00 65 1009.8
20260505053046 7 175 0.0 6.4 0.00 0.00 0.00 65 1009.8
20260505052531 7 0 0.0 4.8 0.00 0.00 0.00 65 1010.0
20260505052028 7 176 0.0 4.8 0.00 0.00 0.00 65 1009.9
20260505051556 7 176 0.0 4.8 0.00 0.00 0.00 65 1010.0
20260505051033 8 0 0.0 4.8 0.00 0.00 0.00 65 1010.0
20260505050531 8 0 1.6 4.8 0.00 0.00 0.00 65 1010.0
20260505041537 10 0 0.0 3.2 0.00 0.00 0.00 65 1009.8
20260505041030 11 0 0.0 8.0 0.00 0.00 0.00 65 1009.8
20260505040530 11 0 0.0 9.7 0.00 0.00 0.00 65 1009.7
20260505040039 11 176 4.8 9.7 0.00 0.00 0.00 66 1009.6
20260505035529 12 171 4.8 12.9 0.00 0.00 0.00 65 1009.5
20260505035029 12 154 4.8 12.9 0.00 0.00 0.00 66 1009.5
20260505034543 12 162 1.6 11.3 0.00 0.00 0.00 66 1009.4
20260505034029 12 161 3.2 17.7 0.00 0.00 0.00 66 1009.4
20260505033533 13 160 8.0 17.7 0.00 0.00 0.00 66 1009.2
20260505033037 13 157 4.8 17.7 0.00 0.00 0.00 66 1009.1
20260505032529 13 151 3.2 8.0 0.00 0.00 0.00 66 1009.1
20260505032029 13 147 4.8 16.1 0.00 0.00 0.00 66 1008.9
20260505031539 14 144 4.8 17.7 0.00 0.00 0.00 66 1008.9
20260505031029 14 174 8.0 17.7 0.00 0.00 0.00 66 1008.7
20260505030529 14 175 8.0 16.1 0.00 0.00 0.00 66 1008.7
20260505030037 14 180 8.0 16.1 0.00 0.00 0.00 66 1008.6
20260505025530 14 175 1.6 9.7 0.00 0.00 0.00 66 1008.6
20260505025028 14 180 4.8 14.5 0.00 0.00 0.00 66 1008.6
20260505024548 14 190 8.0 17.7 0.00 0.00 0.00 66 1008.5
20260505024029 15 175 9.7 32.2 0.00 0.00 0.00 66 1008.3
20260505023529 15 168 14.5 32.2 0.00 0.00 0.00 66 1008.2
20260505023041 15 135 12.9 22.5 0.00 0.00 0.00 66 1007.9
20260505022531 16 191 8.0 22.5 0.00 0.00 0.00 66 1007.8
20260505022029 16 159 8.0 19.3 0.00 0.00 0.00 66 1007.8
20260505021537 16 169 3.2 14.5 0.00 0.00 0.00 66 1007.8
20260505021029 17 103 1.6 14.5 0.00 0.00 0.00 66 1007.6
20260505020529 17 100 4.8 14.5 0.00 0.00 0.00 67 1007.7
20260505020037 17 22 1.6 19.3 0.00 0.00 0.00 66 1007.6
20260505015530 17 0 6.4 25.7 0.00 0.00 0.00 66 1007.6
20260505015029 17 33 16.1 25.7 0.00 0.00 0.00 66 1007.5
20260505014537 17 18 16.1 22.5 0.00 0.00 0.00 66 1007.5
20260505014031 17 12 12.9 19.3 0.00 0.00 0.00 66 1007.6
20260505013529 17 9 11.3 20.9 0.00 0.00 0.00 67 1007.5
20260505013042 17 342 8.0 20.9 0.00 0.00 0.00 66 1007.6
20260505012529 17 344 12.9 22.5 0.00 0.00 0.00 66 1007.6
20260505012031 17 346 12.9 22.5 0.00 0.00 0.00 67 1007.7
20260505011541 17 5 16.1 24.1 0.00 0.00 0.00 67 1007.6
20260505011029 17 350 14.5 24.1 0.00 0.00 0.00 67 1007.7
20260505010529 17 348 14.5 22.5 0.00 0.00 0.00 67 1007.6
20260505010038 17 13 9.7 19.3 0.00 0.00 0.00 66 1007.7
20260505005529 17 360 9.7 19.3 0.00 0.00 0.00 66 1007.6
20260505005029 17 304 8.0 22.5 0.00 0.00 0.00 66 1007.6
20260505004536 17 277 12.9 22.5 0.00 0.00 0.00 66 1007.8
20260505004028 17 284 9.7 29.0 0.00 0.00 0.00 67 1007.8
20260505003528 17 294 12.9 29.0 0.00 0.00 0.00 66 1007.8
20260505003043 18 286 19.3 29.0 0.00 0.00 0.00 66 1007.7
20260505002528 18 328 19.3 29.0 0.00 0.00 0.00 66 1007.6
20260505002029 18 324 17.7 29.0 0.00 0.00 0.00 67 1007.6
20260505001535 18 304 16.1 25.7 0.00 0.00 0.00 66 1007.7
20260505001029 18 342 17.7 30.6 0.00 0.00 0.00 67 1007.7
20260505000530 18 313 17.7 33.8 0.00 0.00 0.00 67 1007.8
20260505000046 18 306 22.5 33.8 0.00 0.00 0.00 67 1007.8
20260504235529 18 290 17.7 32.2 0.00 0.00 0.00 67 1007.9
20260504235031 18 325 22.5 30.6 0.00 0.00 0.00 67 1007.8
20260504234539 18 355 17.7 27.4 0.00 0.00 0.00 67 1007.9
20260504234029 19 5 19.3 25.7 0.00 0.00 0.00 67 1007.9
20260504233531 20 351 14.5 32.2 0.00 0.00 0.00 67 1008.0
20260504233042 20 355 20.9 32.2 0.00 0.00 0.00 67 1008.0
20260504232529 20 325 20.9 29.0 0.00 0.00 0.00 67 1007.9
20260504232029 20 360 14.5 25.7 0.00 0.00 0.00 67 1007.9
20260504231546 20 346 14.5 22.5 0.00 0.00 0.00 67 1008.0
20260504231028 20 355 9.7 22.5 0.00 0.00 0.00 67 1008.0
20260504230528 20 313 14.5 22.5 0.00 0.00 0.00 67 1008.1
20260504230053 20 321 12.9 20.9 0.00 0.00 0.00 67 1008.0
20260504225529 20 305 9.7 19.3 0.00 0.00 0.00 67 1008.1
20260504225032 20 231 4.8 14.5 0.00 0.00 0.00 67 1008.2
20260504224542 20 241 4.8 14.5 0.00 0.00 0.00 67 1008.2
20260504224029 19 54 3.2 8.0 0.00 0.00 0.00 67 1008.3
20260504223530 18 0 0.0 6.4 0.00 0.00 0.00 66 1008.5
20260504223047 18 0 0.0 20.9 0.00 0.00 0.00 67 1008.6
20260504222528 18 0 1.6 20.9 0.00 0.00 0.00 67 1008.6
20260504222029 18 103 11.3 25.7 0.00 0.00 0.00 67 1008.7
20260504221535 18 71 11.3 25.7 0.00 0.00 0.00 67 1008.8
20260504221029 18 103 11.3 25.7 0.00 0.00 0.00 67 1008.9
20260504220529 18 63 12.9 27.4 0.00 0.00 0.00 67 1009.0
20260504220038 18 52 14.5 27.4 0.00 0.00 0.00 67 1009.0
20260504215529 17 38 12.9 32.2 0.00 0.00 0.00 66 1009.0
20260504215028 17 61 16.1 41.8 0.00 0.00 0.00 66 1009.0
20260504214548 17 69 24.1 41.8 0.00 0.00 0.00 66 1009.0
20260504214032 18 96 14.5 27.4 0.00 0.00 0.00 67 1008.9
20260504213529 18 9 14.5 29.0 0.00 0.00 0.00 67 1009.2
20260504213041 18 5 17.7 29.0 0.00 0.00 0.00 67 1009.0
20260504212529 18 329 16.1 37.0 0.00 0.00 0.00 67 1009.0
20260504212030 19 360 25.7 37.0 0.00 0.00 0.00 67 1009.1
20260504211540 20 355 9.7 27.4 0.00 0.00 0.00 67 1009.0
20260504211029 19 18 17.7 27.4 0.00 0.00 0.00 67 1009.2
20260504210529 19 340 12.9 25.7 0.00 0.00 0.00 67 1009.2
20260504210043 19 295 12.9 22.5 0.00 0.00 0.00 67 1009.1
20260504205529 19 352 12.9 25.7 0.00 0.00 0.00 67 1009.4
20260504205028 18 360 14.5 25.7 0.00 0.00 0.00 67 1009.3
20260504204548 18 45 19.3 27.4 0.00 0.00 0.00 67 1009.4
20260504204031 18 30 19.3 30.6 0.00 0.00 0.00 67 1009.4
20260504203528 18 5 14.5 30.6 0.00 0.00 0.00 67 1009.4
20260504203058 18 339 19.3 29.0 0.00 0.00 0.00 67 1009.4
20260504202530 18 348 19.3 32.2 0.00 0.00 0.00 67 1009.4